EW3448 Weather Reports


Display with metric or nautical units.
time (UTC)temp
F
wind
direction
speed
MPH
gust
MPH
rain 1hr
in
rain 24hr
in
rain mn
in
humidity
%
barometer
mb
20181120214732 65 305 5.0 14.0 0.00 0.01 0.01 76 1011.7
20181120213143 65 294 7.0 16.0 0.00 0.01 0.01 74 1011.5
20181120211735 66 304 6.0 20.0 0.00 0.01 0.01 75 1011.2
20181120210158 68 322 6.0 21.0 0.00 0.01 0.01 73 1010.9
20181120204658 68 234 7.0 19.0 0.00 0.01 0.01 68 1010.6
20181120203142 68 270 3.0 13.0 0.00 0.01 0.01 67 1010.6
20181120201606 68 250 5.0 18.0 0.00 0.01 0.01 66 1010.5
20181120200101 68 259 7.0 14.0 0.00 0.01 0.01 67 1010.4
20181120194629 68 243 6.0 14.0 0.00 0.01 0.01 65 1010.2
20181120193146 68 245 4.0 14.0 0.00 0.01 0.01 67 1010.3
20181120191615 68 234 3.0 17.0 0.00 0.01 0.01 69 1010.2
20181120190053 68 263 5.0 15.0 0.00 0.01 0.01 67 1010.1
20181120184622 68 267 3.0 15.0 0.00 0.01 0.01 66 1010.0
20181120181622 68 258 6.0 15.0 0.00 0.01 0.01 66 1009.6
20181120180045 68 257 5.0 16.0 0.00 0.01 0.01 69 1009.5
20181120174546 68 238 8.0 20.0 0.00 0.01 0.01 69 1009.3
20181120173103 68 221 4.0 13.0 0.00 0.01 0.01 70 1009.1
20181120171541 68 239 5.0 16.0 0.00 0.01 0.01 70 1008.9
20181120170047 68 228 5.0 17.0 0.00 0.01 0.01 71 1008.8
20181120164618 68 267 3.0 13.0 0.00 0.01 0.01 69 1008.6
20181120163049 68 214 5.0 15.0 0.00 0.01 0.01 69 1008.3
20181120161517 68 227 4.0 15.0 0.00 0.01 0.01 69 1007.9
20181120160024 69 221 2.0 17.0 0.00 0.01 0.01 67 1007.8
20181120154513 69 278 2.0 13.0 0.00 0.01 0.01 67 1007.6
20181120153033 69 206 3.0 11.0 0.00 0.01 0.01 67 1007.5
20181120151508 69 210 3.0 12.0 0.00 0.01 0.01 67 1007.3
20181120150007 69 248 3.0 12.0 0.00 0.01 0.01 72 1007.6
20181120144516 69 217 4.0 13.0 0.00 0.01 0.01 75 1007.4
20181120143225 69 229 3.0 14.0 0.00 0.01 0.01 75 1007.5
20181120141705 70 213 3.0 14.0 0.00 0.01 0.01 76 1007.2
20181120140132 70 206 2.0 12.0 0.00 0.01 0.01 75 1007.1
20181120134650 70 213 4.0 13.0 0.00 0.01 0.01 74 1007.1
20181120133232 70 210 3.0 10.0 0.00 0.01 0.01 76 1007.0
20181120131648 71 231 4.0 13.0 0.00 0.01 0.01 76 1006.8
20181120130131 71 219 3.0 11.0 0.00 0.01 0.01 76 1006.9
20181120124722 71 220 3.0 11.0 0.00 0.01 0.01 74 1006.8
20181120123125 72 223 5.0 18.0 0.00 0.01 0.01 72 1006.9
20181120121638 72 203 8.0 17.0 0.00 0.01 0.01 69 1007.0
20181120120253 71 209 6.0 13.0 0.00 0.01 0.01 70 1007.1
20181120114636 71 210 4.0 13.0 0.00 0.01 0.01 69 1006.8
20181120113126 71 209 5.0 17.0 0.00 0.01 0.01 69 1007.3
20181120111701 71 213 3.0 14.0 0.00 0.01 0.01 70 1007.2
20181120110144 71 181 6.0 15.0 0.00 0.01 0.01 69 1007.3
20181120104620 72 181 3.0 12.0 0.00 0.01 0.01 69 1007.2
20181120103105 72 179 4.0 12.0 0.00 0.01 0.01 68 1007.3
20181120101601 72 198 3.0 9.0 0.00 0.01 0.01 71 1007.6
20181120100116 71 198 4.0 8.0 0.00 0.01 0.01 69 1007.7
20181120094614 71 189 4.0 9.0 0.01 0.01 0.01 72 1007.8
20181120093137 70 203 1.0 13.0 0.01 0.01 0.01 71 1008.2
20181120091556 70 186 4.0 9.0 0.01 0.01 0.01 76 1008.2
20181120090129 71 183 5.0 11.0 0.01 0.01 0.01 76 1007.9
20181120084559 72 218 1.0 6.0 0.00 0.00 0.00 75 1008.3
20181120083042 72 217 0.0 4.0 0.00 0.00 0.00 75 1007.6
20181120081539 71 217 1.0 7.0 0.00 0.00 0.00 74 1007.4
20181120080115 71 213 0.0 9.0 0.00 0.00 0.00 73 1007.3
20181120074636 71 203 0.0 8.0 0.00 0.00 0.00 72 1007.1
20181120073049 71 195 4.0 11.0 0.00 0.00 0.00 74 1007.4
20181120071549 71 210 4.0 12.0 0.00 0.00 0.00 74 1007.2
20181120070036 71 188 4.0 14.0 0.00 0.00 0.00 74 1006.9
20181120064521 71 214 1.0 9.0 0.00 0.00 0.00 74 1006.4
20181120063013 71 214 2.0 10.0 0.00 0.00 0.00 73 1006.5
20181120061619 71 210 1.0 10.0 0.00 0.00 0.00 72 1006.4
20181120060013 71 218 3.0 10.0 0.00 0.00 0.00 73 1006.6
20181120054519 71 202 4.0 12.0 0.00 0.00 0.00 73 1006.2
20181120053008 71 193 7.0 17.0 0.00 0.00 0.00 74 1006.2
20181120051509 70 207 4.0 10.0 0.00 0.00 0.00 75 1006.3
20181120050005 70 206 2.0 9.0 0.00 0.00 0.00 75 1006.2
20181120044509 70 207 2.0 8.0 0.00 0.00 0.00 75 1005.9
20181120043241 70 214 2.0 5.0 0.00 0.00 0.00 75 1005.4
20181120041704 70 214 0.0 7.0 0.00 0.00 0.00 74 1005.5
20181120040239 70 211 1.0 10.0 0.00 0.00 0.00 74 1005.4
20181120034718 70 239 1.0 10.0 0.00 0.00 0.00 74 1005.2
20181120033149 71 229 0.0 8.0 0.00 0.00 0.00 73 1005.2
20181120031738 71 224 0.0 6.0 0.00 0.00 0.00 73 1005.2
20181120030202 71 223 1.0 9.0 0.00 0.00 0.00 72 1005.2
20181120024644 71 229 1.0 9.0 0.00 0.00 0.00 72 1005.2
20181120023214 71 203 1.0 13.0 0.00 0.00 0.00 72 1005.2
20181120021627 71 193 3.0 14.0 0.00 0.00 0.00 71 1005.5
20181120020209 72 237 5.0 20.0 0.00 0.00 0.00 72 1005.4
20181120014647 72 193 8.0 23.0 0.00 0.00 0.00 72 1005.2
20181120013136 72 212 11.0 23.0 0.00 0.00 0.00 72 1005.0
20181120011619 72 175 8.0 21.0 0.00 0.00 0.00 75 1005.0
20181120010135 71 180 9.0 20.0 0.00 0.00 0.00 76 1005.1
20181120004637 72 184 6.0 16.0 0.00 0.00 0.00 77 1005.4
20181120003143 72 212 6.0 22.0 0.00 0.00 0.00 77 1005.3
20181120001714 71 191 8.0 24.0 0.00 0.00 0.00 77 1005.4
20181120000127 71 169 11.0 25.0 0.00 0.00 0.00 79 1005.3
20181119234624 71 179 7.0 22.0 0.00 0.00 0.00 81 1005.4
20181119233110 71 170 11.0 26.0 0.00 0.00 0.00 83 1005.2
20181119231655 70 178 8.0 18.0 0.00 0.00 0.00 84 1005.1
20181119230056 70 180 10.0 20.0 0.00 0.00 0.00 85 1005.3
20181119224543 70 151 11.0 22.0 0.00 0.00 0.00 85 1005.3
20181119223056 70 191 11.0 23.0 0.00 0.00 0.00 85 1005.6
20181119221613 70 154 11.0 20.0 0.00 0.00 0.00 85 1005.5
20181119220100 70 185 10.0 21.0 0.00 0.00 0.00 85 1005.8